Location: Beutels
(47.8767°N, 9.8584°E)
Time: 13:10:35
(UTC+00:00)

ISS - Pass Details

Date: 26 January 2026
Orbit: 413 x 429 km, 51.6° (Epoch: 11 February)

Event Time Altitude Azimuth Distance (km) Brightness Sun altitude
Rises 16:56:50 0° 291° (WNW) 2,363 0.9 -7.8°
Reaches altitude 10° 16:58:56 10° 295° (WNW) 1,500 -0.2 -8.2°
Maximum altitude 17:02:17 63° 17° (NNE) 473 -3.7 -8.7°
Enters shadow 17:05:36 10° 100° (E) 1,490 -1.5 -9.2°
